Hlavní strana
METAR-TAF:

METAR-TAF

Letiště :

Macon County Airport

Franklin, Severní Karolína, Spojené státy americké

zeměpisná šířka: 35-13N, zeměpisná délka: 083-25W, výška: 616 m

Aktuální stav počasí

Zpráva byla vytvořena před 13 minutami, v 11:05 UTC
Bezvětří
Teplota 15°C
Vlhkost vzduchu 100%
Tlak 1025 hPa
Viditelnost: 0.4 km
Zataženo ve výšce 100 ft
mlha

METAR: K1A5 261105Z AUTO 00000KT 1/4SM FG OVC001 15/15 A3028 RMK AO2 T01450145

Čas: 07:18 (11:18 UTC)


TAF: chybějící

Stav a předpovědi počasí z více než 4 000 letišť (zprávy METAR a TAF).

Červené a žluté tečky na mapě představují dostupné meteorologické stanice.

Když kurzor umístíte na tečku, zobrazí se název stanice.

Pak kliknutím zobrazíte stav a předpověď počasí.

Chcete-li změnit mapu, kliknutím na zelené tlačítko se znaménkem +mapu přiblížíte, kliknutím na zelené tlačítko se znaménkem – mapu oddálíte a kliknutím na zelené šipky přejdete na sousední mapy.


METAR-TAF: